sat.trackr.live / text

‹ back to catalog

BUGSAT-1 (TITA)

NORAD 40014 · 2014-033E

PAYLOAD ACTIVE UNKNOWN

§ Identity

Operator
Country
ARGN
Launch date
2014-06-19
Launch site
DLS
Launch vehicle
Mass (kg)
RCS (m²)
0.27

Purposes: tech_demo

External: N2YO · Heavens-Above · Gunter

§ Orbital elements

Epoch: 2026-05-25T04:34:09.295104Z

Period
95.03 min
Inclination
98.0414°
Eccentricity
0.0026902
Mean motion
15.15301772 rev/d
Perigee alt
501.5 km
Apogee alt
538.6 km
Semi-major
6,898.2 km
B*
2.8309e-4
RAAN
236.3999°
Arg perigee
258.6548°
Mean anomaly
101.1660°
Rev number
65,235

§ Raw data

BUGSAT-1 (TITA)1 40014U 14033E   26145.19038536  .00005302  00000+0  28309-3 0  99972 40014  98.0414 236.3999 0026902 258.6548 101.1660 15.15301772652353

JSON: /api/v1/satellites/40014 · /tle

For live sub-satellite position, see the globe view (requires WebGL).

§ Visibility from observer

Set your observer location to see the next 7 days of passes ≥ 10°. The values pass through the URL so the page stays shareable.

No JS? Fill the form by hand. The geolocation button needs JavaScript.

§ Radio — SatNOGS DB

ModeDescriptionDownlinkUplink
AFSK 437.445 AFSK 1200bps 437.445 MHz
GMSK 437.445 GMSK 9600bps 437.445 MHz
FSK AX.25 beacon 437.445 MHz

3 transmitters · refreshed weekly from db.satnogs.org